Regional Weather Roundup
Issued by NWS Cleveland, OH

Home | Current Version | Previous Version | Graphics & Text | Print | Product List | Glossary On
Versions: 1 2 3 4 5 6 7 8 9 10 11 12 13 14 15 16 17 18 19 20 21 22 23 24 25 26 27 28 29 30 31 32 33 34 35 36 37 38 39 40 41 42 43 44 45 46 47 48 49 50
000
ASUS41 KCLE 280110
RWRCLE
OHIO REGIONAL WEATHER ROUNDUP
NATIONAL WEATHER SERVICE CLEVELAND, OH
900 PM EDT SUN MAY 27 2018

NOTE: "FAIR" INDICATES FEW OR NO CLOUDS BELOW 12,000 FEET WITH NO
SIGNIFICANT WEATHER AND/OR OBSTRUCTIONS TO VISIBILITY.

OHZ001>008-015>018-024>027-034-035-043-044-280200-
   NORTHWEST OHIO

CITY           SKY/WX    TMP DP  RH WIND       PRES   REMARKS
DEFIANCE       FAIR      82  66  58 CALM      29.90R
FINDLAY        FAIR      85  60  42 S5        29.90R
TOLEDO EXPRESS FAIR      80  64  58 CALM      29.89R
TOLEDO EXEC    FAIR      82  70  66 E3        29.90R
LIMA           FAIR      81  62  52 E5        29.92S
$$

OHZ009>014-019>023-028>033-038-089-280200-
   NORTHEAST OHIO

CITY           SKY/WX    TMP DP  RH WIND       PRES   REMARKS
CLE-HOPKINS    FAIR      79  62  56 SE5       29.93F
CLE-LAKEFRONT  FAIR      82  59  45 CALM      29.89F
CUY CO. ARPT   PTCLDY    77  64  65 CALM      29.94S
LORAIN-ELYRIA  FAIR      79  62  56 VRB5      29.91F
ASHTABULA      FAIR      71  67  87 CALM      29.94S
AKRON-CANTON   FAIR      79  66  64 S8        29.95S
WOOSTER        FAIR      77  69  76 S8        29.95S
MANSFIELD      FAIR      79  69  71 SE8       29.96R
YOUNGSTOWN     FAIR      74  65  73 S6        29.94F
$$

OHZ042-051>053-060>062-070>072-077>081-280200-
  SOUTHWEST OHIO

CITY           SKY/WX    TMP DP  RH WIND       PRES   REMARKS
CINC-COVINGTON MOCLDY    79  67  66 SW3       29.92R
CINC-LUNKEN    FAIR      77  74  90 SE6       29.92R
HAMILTON       FAIR      79  72  79 S3        29.92R
DAYTON         MOCLDY    83  65  54 NE3       29.94R
WRIGHT-PAT AFB FAIR      85  63  47 CALM      29.92R
DAYTON GENERAL FAIR      83  63  50 SE3       29.92R
WILMINGTON     FAIR      75  68  78 SE6       29.95R
$$

OHZ036-037-039>041-045>050-054>059-063>069-073>076-082>088-280200-
  CENTRAL AND SOUTHEAST OHIO

CITY           SKY/WX    TMP DP  RH WIND       PRES   REMARKS
COLUMBUS       CLOUDY    84  66  54 SE6       29.92S
OSU AIRPORT    FAIR      83  65  54 SE6       29.93R
BOLTON FIELD   FAIR      80  69  67 S10       29.95R
RICKENBACK AFB FAIR      80  68  66 MISG      29.93S
NEWARK         FAIR      80  69  69 SE3       29.94R
MARION         FAIR      81  66  60 S5        29.94R
LANCASTER      FAIR      78  69  73 SE6       29.94S
ZANESVILLE     FAIR      79  67  66 CALM      29.95R
NEW PHILLY     NOT AVBL
$$



USA.gov is the U.S. government's official web portal to all federal, state and local government web resources and services.